{"data":{"norad_id":65464,"epoch":"2026-09-20T14:36:43.096032Z","epoch_age_seconds":105467,"freshness":"FRESH","line1":"1 65464U 25195G   26263.60883213  .00020968  00000+0  68520-3 0  9995","line2":"2 65464  53.1582  70.8924 0001642  92.1342 267.9848 15.31715825 59865","mean_motion":15.31715825,"eccentricity":0.0001642,"inclination_deg":53.1582,"raan_deg":70.8924,"arg_perigee_deg":92.1342,"mean_anomaly_deg":267.9848,"bstar":0.0006852,"rev_number":5986,"period_min":94.012216659053,"perigee_km":469.56824427347,"apogee_km":471.81739998705,"semimajor_km":6848.8298221303,"source":"CELESTRAK","updated_at":"2026-09-21T09:00:35.614926Z"}}